SUNNYSIDE Weather Reports


time (UTC)temp
F
wind
direction
speed
knots
gust
knots
rain 1hr
in
rain 24hr
in
rain mn
in
humidity
%
barometer
mb
20260507015058 39 5 0.0 4.3 0.00 0.00 0.00 34 983.2
20260507014612 40 11 1.7 5.2 0.00 0.00 0.00 34 983.0
20260507014054 40 24 1.7 5.2 0.00 0.00 0.00 33 983.1
20260507013553 40 350 1.7 4.3 0.00 0.00 0.00 33 983.1
20260507013056 40 37 0.9 7.0 0.00 0.00 0.00 32 983.2
20260507012558 41 19 1.7 7.0 0.00 0.00 0.00 32 983.2
20260507012054 41 44 1.7 7.0 0.00 0.00 0.00 32 983.3
20260507011553 41 29 1.7 7.8 0.00 0.00 0.00 32 983.3
20260507011055 41 40 1.7 7.8 0.00 0.00 0.00 32 983.2
20260507010557 42 26 1.7 9.6 0.00 0.00 0.00 32 983.1
20260507010107 42 360 3.5 9.6 0.00 0.00 0.00 32 983.1
20260507005553 42 28 2.6 7.8 0.00 0.00 0.00 32 983.2
20260507005052 42 22 2.6 7.8 0.00 0.00 0.00 33 983.1
20260507004552 42 10 3.5 9.6 0.00 0.00 0.00 32 983.1
20260507004051 42 355 4.3 9.6 0.00 0.00 0.00 33 983.1
20260507003551 42 355 2.6 8.7 0.00 0.00 0.00 34 983.2
20260507003051 42 342 3.5 8.7 0.00 0.00 0.00 34 983.1
20260507002550 42 21 4.3 8.7 0.00 0.00 0.00 34 983.2
20260507002050 42 355 2.6 8.7 0.00 0.00 0.00 35 983.3
20260507001552 43 38 3.5 8.7 0.00 0.00 0.00 34 983.3
20260507001048 43 5 4.3 9.6 0.00 0.00 0.00 34 983.4
20260507000547 43 5 3.5 9.6 0.00 0.00 0.00 35 983.4
20260507000048 43 26 3.5 9.6 0.00 0.00 0.00 34 983.5
20260506235549 43 355 2.6 9.6 0.00 0.00 0.00 34 983.5
20260506235047 43 350 3.5 10.4 0.00 0.00 0.00 35 983.5
20260506234548 43 20 3.5 10.4 0.00 0.00 0.00 35 983.5
20260506234047 43 5 4.3 10.4 0.00 0.00 0.00 35 983.4
20260506233548 43 23 3.5 10.4 0.00 0.00 0.00 35 983.5
20260506233052 43 32 5.2 10.4 0.00 0.00 0.00 35 983.5
20260506232547 43 325 3.5 12.2 0.00 0.00 0.00 36 983.6
20260506232046 43 355 6.1 12.2 0.00 0.00 0.00 35 983.6
20260506231546 43 355 5.2 9.6 0.00 0.00 0.00 36 983.7
20260506231048 43 336 6.1 11.3 0.00 0.00 0.00 36 983.6
20260506230548 43 350 6.1 11.3 0.00 0.00 0.00 37 983.7
20260506230046 43 28 6.1 11.3 0.00 0.00 0.00 35 983.8
20260506225545 44 323 6.1 11.3 0.00 0.00 0.00 36 983.6
20260506225045 44 42 4.3 12.2 0.00 0.00 0.00 35 983.6
20260506224545 44 331 5.2 12.2 0.00 0.00 0.00 36 983.5
20260506224045 44 346 4.3 14.8 0.00 0.00 0.00 35 983.5
20260506223544 44 306 7.8 14.8 0.00 0.00 0.00 36 983.5
20260506223046 44 315 6.1 10.4 0.00 0.00 0.00 36 983.6
20260506222544 44 338 5.2 10.4 0.00 0.00 0.00 36 983.6
20260506222044 44 19 4.3 12.2 0.00 0.00 0.00 37 983.7
20260506221545 44 315 7.0 12.2 0.00 0.00 0.00 37 983.6
20260506221043 44 346 5.2 10.4 0.00 0.00 0.00 37 983.8
20260506220542 43 26 3.5 11.3 0.00 0.00 0.00 36 983.8
20260506220044 43 19 5.2 11.3 0.00 0.00 0.00 36 983.8
20260506215545 43 314 5.2 12.2 0.00 0.00 0.00 36 983.8
20260506215042 44 350 7.0 12.2 0.00 0.00 0.00 36 983.9
20260506214544 43 333 6.1 11.3 0.00 0.00 0.00 38 983.9
20260506214041 43 45 4.3 13.0 0.00 0.00 0.00 37 984.0
20260506213541 44 317 6.1 13.0 0.00 0.00 0.00 37 984.1
20260506213040 43 355 5.2 13.9 0.00 0.00 0.00 37 984.0
20260506212542 43 355 5.2 13.9 0.00 0.00 0.00 37 984.2
20260506212041 43 311 7.8 12.2 0.00 0.00 0.00 38 984.2
20260506211538 43 360 4.3 10.4 0.00 0.00 0.00 37 984.3
20260506211038 43 15 4.3 10.4 0.00 0.00 0.00 37 984.2
20260506210542 43 334 6.1 12.2 0.00 0.00 0.00 38 984.2
20260506210038 43 26 5.2 12.2 0.00 0.00 0.00 38 984.3
20260506205537 43 337 6.1 13.0 0.00 0.00 0.00 38 984.2
20260506205038 43 319 4.3 12.2 0.00 0.00 0.00 40 984.4
20260506204535 43 338 5.2 13.0 0.00 0.00 0.00 39 984.6
20260506204034 43 288 6.1 15.6 0.00 0.00 0.00 38 984.5
20260506203534 43 332 6.1 15.6 0.00 0.00 0.00 39 984.6
20260506203034 42 355 5.2 13.0 0.00 0.00 0.00 39 984.6
20260506202533 42 341 3.5 13.0 0.00 0.00 0.00 39 984.7
20260506202033 42 333 3.5 12.2 0.00 0.00 0.00 39 984.6
20260506201542 42 304 6.1 12.2 0.00 0.00 0.00 40 984.9
20260506201034 42 340 4.3 10.4 0.00 0.00 0.00 39 984.8
20260506200530 43 340 5.2 13.0 0.00 0.00 0.00 40 984.8
20260506200031 42 67 7.0 13.9 0.00 0.00 0.00 41 984.8
20260506195529 42 33 7.0 13.9 0.00 0.00 0.00 41 984.8
20260506195031 41 342 5.2 14.8 0.00 0.00 0.00 40 985.0
20260506194534 42 304 6.1 14.8 0.00 0.00 0.00 43 985.1
20260506194027 41 325 3.5 12.2 0.00 0.00 0.00 42 985.0
20260506193526 41 360 7.0 12.2 0.00 0.00 0.00 42 985.0
20260506193026 41 278 7.0 14.8 0.00 0.00 0.00 42 985.2
20260506192527 41 339 6.1 14.8 0.00 0.00 0.00 41 985.2
20260506192026 41 304 7.0 14.8 0.00 0.00 0.00 41 985.2
20260506191525 41 312 7.0 14.8 0.00 0.00 0.00 42 985.3
20260506191025 41 284 7.8 12.2 0.00 0.00 0.00 42 985.3
20260506190523 41 348 5.2 11.3 0.00 0.00 0.00 43 985.2
20260506190023 41 347 3.5 12.2 0.00 0.00 0.00 42 985.4
20260506185522 41 312 6.1 13.9 0.00 0.00 0.00 44 985.4
20260506185021 40 303 6.1 13.9 0.00 0.00 0.00 42 985.3
20260506184520 40 28 5.2 13.9 0.00 0.00 0.00 42 985.5
20260506184021 40 5 7.0 12.2 0.00 0.00 0.00 43 985.5
20260506183519 40 341 5.2 15.6 0.00 0.00 0.00 42 985.6
20260506183018 40 11 8.7 15.6 0.00 0.00 0.00 43 985.6
20260506182518 39 334 7.0 13.0 0.00 0.00 0.00 42 985.6
20260506182019 40 336 7.8 14.8 0.00 0.00 0.00 42 985.7
20260506181518 39 351 7.0 14.8 0.00 0.00 0.00 41 985.7
20260506181016 40 311 8.7 13.9 0.00 0.00 0.00 43 985.8
20260506180518 40 338 8.7 14.8 0.00 0.00 0.00 43 985.8
20260506180016 40 296 10.4 14.8 0.00 0.00 0.00 44 985.9
20260506175516 39 331 8.7 13.9 0.00 0.00 0.00 45 985.9
20260506175013 39 355 8.7 14.8 0.00 0.00 0.00 43 986.1
20260506174513 39 315 6.1 14.8 0.00 0.00 0.00 44 986.1
20260506174013 39 299 8.7 14.8 0.00 0.00 0.00 42 986.2
20260506173512 39 303 7.0 16.5 0.00 0.00 0.00 43 986.0
20260506173011 39 312 9.6 16.5 0.00 0.00 0.00 43 986.2
20260506172510 39 343 8.7 14.8 0.00 0.00 0.00 42 986.3
20260506172109 38 326 9.6 16.5 0.00 0.00 0.00 43 986.2
20260506171507 38 5 7.0 16.5 0.00 0.00 0.00 43 986.3
20260506171005 38 350 8.7 14.8 0.00 0.00 0.00 43 986.2
20260506170504 38 339 9.6 15.6 0.00 0.00 0.00 42 986.3
20260506170004 38 294 7.8 15.6 0.00 0.00 0.00 44 986.5
20260506165502 37 346 8.7 16.5 0.00 0.00 0.00 44 986.5
20260506165002 37 325 8.7 16.5 0.00 0.00 0.00 42 986.6
20260506164601 37 342 8.7 18.2 0.00 0.00 0.00 43 986.6
20260506164057 37 333 8.7 18.2 0.00 0.00 0.00 45 986.5
20260506163557 37 343 9.6 14.8 0.00 0.00 0.00 44 986.5
20260506163104 37 325 7.8 12.2 0.00 0.00 0.00 47 986.6
20260506162556 37 262 7.8 12.2 0.00 0.00 0.00 46 986.6
20260506162056 37 323 7.0 11.3 0.00 0.00 0.00 47 986.6
20260506161600 37 332 6.1 13.0 0.00 0.00 0.00 48 986.6
20260506161053 37 324 7.0 13.9 0.00 0.00 0.00 49 986.7
20260506160552 37 322 8.7 13.9 0.00 0.00 0.00 49 986.8
20260506160051 36 304 7.8 13.0 0.00 0.00 0.00 51 986.7
20260506155549 36 306 7.0 13.0 0.00 0.00 0.00 52 986.8
20260506155048 36 355 5.2 12.2 0.00 0.00 0.00 53 986.9
20260506154552 36 323 8.7 12.2 0.00 0.00 0.00 52 986.9
20260506154046 36 15 6.1 13.0 0.00 0.00 0.00 54 986.8
20260506153545 36 344 6.1 13.0 0.00 0.00 0.00 53 986.8
20260506153047 35 284 7.8 11.3 0.00 0.00 0.00 53 986.8
20260506152545 36 331 7.8 12.2 0.00 0.00 0.00 52 986.9
20260506152047 36 355 7.8 12.2 0.00 0.00 0.00 51 986.8
20260506151544 36 355 7.0 11.3 0.00 0.00 0.00 52 986.7
20260506151044 36 344 7.0 11.3 0.00 0.00 0.00 52 986.8
20260506150543 36 304 7.8 11.3 0.00 0.00 0.00 51 986.7
20260506150043 36 310 7.0 12.2 0.00 0.00 0.00 52 986.8
20260506145542 36 300 7.0 11.3 0.00 0.00 0.00 52 986.8
20260506145042 36 355 6.1 10.4 0.00 0.00 0.00 52 986.8
20260506144544 36 287 6.1 11.3 0.00 0.00 0.00 52 986.7
20260506144042 36 332 5.2 11.3 0.00 0.00 0.00 52 986.7
20260506143542 36 319 6.1 11.3 0.00 0.00 0.00 52 986.7
20260506143041 36 311 7.0 11.3 0.00 0.00 0.00 51 986.7
20260506142540 36 325 4.3 11.3 0.00 0.00 0.00 53 986.6
20260506142042 36 324 6.1 10.4 0.00 0.00 0.00 52 986.6
20260506141538 35 297 7.0 10.4 0.00 0.00 0.00 52 986.7
20260506141038 35 297 6.1 9.6 0.00 0.00 0.00 53 986.7
20260506140537 35 325 7.8 11.3 0.00 0.00 0.00 52 986.7
20260506140042 35 333 7.0 10.4 0.00 0.00 0.00 52 986.8
20260506135535 35 317 6.1 11.3 0.00 0.00 0.00 52 986.6
20260506135035 35 325 7.0 11.3 0.00 0.00 0.00 52 986.8
20260506134535 35 290 7.0 9.6 0.00 0.00 0.00 52 986.8
20260506134035 35 342 6.1 8.7 0.00 0.00 0.00 52 986.8
20260506133535 35 292 5.2 9.6 0.00 0.00 0.00 52 986.7
20260506133034 35 309 6.1 9.6 0.00 0.00 0.00 52 986.7
20260506132532 34 292 4.3 9.6 0.00 0.00 0.00 52 986.7
20260506132032 34 244 4.3 10.4 0.00 0.00 0.00 53 986.7
20260506131534 34 292 7.0 10.4 0.00 0.00 0.00 53 986.7
20260506131028 34 309 4.3 9.6 0.00 0.00 0.00 53 986.8
20260506130529 34 336 4.3 9.6 0.00 0.00 0.00 53 986.7
20260506130029 33 308 5.2 8.7 0.00 0.00 0.00 53 986.6
20260506125526 33 294 3.5 7.0 0.00 0.00 0.00 53 986.6
20260506125027 33 286 4.3 7.8 0.00 0.00 0.00 53 986.7
20260506124525 33 292 2.6 7.8 0.00 0.00 0.00 53 986.6
20260506124027 33 286 3.5 7.0 0.00 0.00 0.00 54 986.6
20260506123524 33 260 2.6 6.1 0.00 0.00 0.00 54 986.6
20260506123023 32 271 3.5 7.0 0.00 0.00 0.00 54 986.6
20260506122523 32 276 3.5 7.0 0.00 0.00 0.00 55 986.6
20260506122021 32 275 3.5 7.0 0.00 0.00 0.00 55 986.6
20260506121521 32 267 3.5 6.1 0.00 0.00 0.00 56 986.5
20260506121020 32 265 2.6 4.3 0.00 0.00 0.00 56 986.5
20260506120521 32 278 2.6 6.1 0.00 0.00 0.00 56 986.4
20260506120029 31 255 2.6 6.1 0.00 0.00 0.00 56 986.3
20260506115521 31 269 1.7 5.2 0.00 0.00 0.00 55 986.4
20260506115020 31 272 1.7 3.5 0.00 0.00 0.00 56 986.3
20260506114521 31 260 1.7 4.3 0.00 0.00 0.00 55 986.3
20260506114020 31 254 2.6 4.3 0.00 0.00 0.00 55 986.4
20260506113520 31 271 1.7 4.3 0.00 0.00 0.00 56 986.3
20260506113020 31 239 2.6 4.3 0.00 0.00 0.00 56 986.2
20260506112519 31 245 2.6 3.5 0.00 0.00 0.00 56 986.2
20260506112019 31 254 1.7 3.5 0.00 0.00 0.00 56 986.3
20260506111523 31 254 2.6 3.5 0.00 0.00 0.00 56 986.3
20260506111019 31 277 0.9 2.6 0.00 0.00 0.00 56 986.3
20260506110518 31 277 0.9 2.6 0.00 0.00 0.00 56 986.3
20260506110019 31 277 0.9 2.6 0.00 0.00 0.00 56 986.2
20260506105519 31 277 0.9 2.6 0.00 0.00 0.00 56 986.2
20260506105018 31 277 0.9 2.6 0.00 0.00 0.00 56 986.3
20260506104518 31 277 0.9 2.6 0.00 0.00 0.00 56 986.2
20260506104018 31 277 0.0 2.6 0.00 0.00 0.00 56 986.2
20260506103518 31 277 0.9 2.6 0.00 0.00 0.00 56 986.2
20260506103021 31 277 0.9 3.5 0.00 0.00 0.00 56 986.3
20260506102521 31 277 0.9 3.5 0.00 0.00 0.00 56 986.3
20260506102018 31 277 1.7 3.5 0.00 0.00 0.00 56 986.2
20260506101519 31 277 1.7 2.6 0.00 0.00 0.00 56 986.3
20260506101017 31 277 0.9 3.5 0.00 0.00 0.00 56 986.4
20260506100517 31 301 1.7 4.3 0.00 0.00 0.00 56 986.4
20260506100017 31 256 1.7 4.3 0.00 0.00 0.00 56 986.4
20260506095519 31 281 1.7 3.5 0.00 0.00 0.00 56 986.5
20260506095016 31 261 1.7 3.5 0.00 0.00 0.00 56 986.5
20260506094517 31 261 1.7 3.5 0.00 0.00 0.00 56 986.4
20260506094017 32 289 0.9 3.5 0.00 0.00 0.00 56 986.4
20260506093519 32 298 1.7 4.3 0.00 0.00 0.00 56 986.4
20260506093028 32 304 2.6 4.3 0.00 0.00 0.00 56 986.4
20260506092516 32 284 2.6 4.3 0.00 0.00 0.00 56 986.4
20260506092018 31 294 1.7 5.2 0.00 0.00 0.00 56 986.4
20260506091516 32 275 1.7 5.2 0.00 0.00 0.00 56 986.3
20260506091015 31 254 2.6 3.5 0.00 0.00 0.00 56 986.2
20260506090514 32 281 1.7 3.5 0.00 0.00 0.00 56 986.3
20260506090014 32 267 0.9 4.3 0.00 0.00 0.00 56 986.3
20260506085516 32 296 2.6 4.3 0.00 0.00 0.00 56 986.4
20260506085014 32 295 2.6 4.3 0.00 0.00 0.00 56 986.3
20260506084516 32 292 1.7 6.1 0.00 0.00 0.00 56 986.3
20260506084017 32 279 2.6 6.1 0.00 0.00 0.00 56 986.2
20260506083514 32 304 2.6 7.0 0.00 0.00 0.00 56 986.3
20260506083014 32 292 3.5 7.0 0.00 0.00 0.00 56 986.3
20260506082518 32 297 2.6 5.2 0.00 0.00 0.00 56 986.3
20260506082013 32 294 3.5 7.0 0.00 0.00 0.00 56 986.3
20260506081512 32 296 2.6 7.0 0.00 0.00 0.00 56 986.3
20260506081016 32 292 3.5 7.0 0.00 0.00 0.00 56 986.3
20260506080512 32 296 3.5 7.8 0.00 0.00 0.00 55 986.3
20260506073512 32 323 3.5 7.0 0.00 0.00 0.00 55 986.3
20260506073010 32 281 2.6 7.0 0.00 0.00 0.00 54 986.3
20260506072508 32 298 1.7 6.1 0.00 0.00 0.00 54 986.3
20260506072009 32 273 3.5 7.0 0.00 0.00 0.00 54 986.3
20260506071508 32 286 2.6 7.0 0.00 0.00 0.00 54 986.3
20260506071006 31 290 2.6 5.2 0.00 0.00 0.00 54 986.4
20260506070505 31 300 2.6 5.2 0.00 0.00 0.00 55 986.4
20260506062500 30 277 1.7 4.3 0.00 0.00 0.00 56 986.4
20260506062100 30 277 0.9 3.5 0.00 0.00 0.00 56 986.4
20260506061605 30 277 1.7 3.5 0.00 0.00 0.00 56 986.5
20260506061059 30 294 0.9 4.3 0.00 0.00 0.00 56 986.5
20260506060558 30 292 1.7 4.3 0.00 0.00 0.00 56 986.4
20260506051054 30 273 1.7 2.6 0.00 0.00 0.00 56 986.4
20260506050554 30 266 0.9 2.6 0.00 0.00 0.00 56 986.4
20260506045054 29 269 1.7 3.5 0.00 0.00 0.00 56 986.5
20260506044604 30 290 0.9 3.5 0.00 0.00 0.00 56 986.4
20260506044052 30 281 0.9 3.5 0.00 0.00 0.00 56 986.5
20260506043556 30 280 1.7 3.5 0.00 0.00 0.00 56 986.5
20260506043054 30 265 1.7 5.2 0.00 0.00 0.00 56 986.6
20260506042552 30 271 1.7 5.2 0.00 0.00 0.00 56 986.5
20260506042052 30 289 1.7 3.5 0.00 0.00 0.00 56 986.5
20260506041605 30 288 1.7 3.5 0.00 0.00 0.00 56 986.5
20260506041054 30 289 1.7 3.5 0.00 0.00 0.00 56 986.5
20260506040551 31 293 1.7 3.5 0.00 0.00 0.00 56 986.6
20260506040055 31 288 1.7 3.5 0.00 0.00 0.00 56 986.6
20260506035551 31 302 2.6 4.3 0.00 0.00 0.00 55 986.6
20260506035052 31 305 2.6 4.3 0.00 0.00 0.00 55 986.6
20260506034551 31 286 2.6 4.3 0.00 0.00 0.00 55 986.5
20260506034050 32 290 1.7 4.3 0.00 0.00 0.00 55 986.6
20260506033550 32 277 1.7 5.2 0.00 0.00 0.00 55 986.6
20260506033052 32 315 2.6 5.2 0.00 0.00 0.00 54 986.6
20260506032550 32 302 2.6 5.2 0.00 0.00 0.00 54 986.5
20260506032050 32 295 1.7 4.3 0.00 0.00 0.00 54 986.5
20260506031549 32 329 1.7 4.3 0.00 0.00 0.00 54 986.6
20260506031051 32 307 2.6 4.3 0.00 0.00 0.00 54 986.5
20260506030547 32 308 1.7 4.3 0.00 0.00 0.00 54 986.4
20260506030047 33 291 2.6 5.2 0.00 0.00 0.00 53 986.5
20260506025548 33 320 3.5 5.2 0.00 0.00 0.00 52 986.4
20260506025047 33 307 2.6 5.2 0.00 0.00 0.00 52 986.5
20260506024547 33 323 2.6 7.0 0.00 0.00 0.00 52 986.4
20260506024049 33 331 2.6 7.0 0.00 0.00 0.00 52 986.4
20260506023547 33 328 4.3 7.8 0.00 0.00 0.00 52 986.4
20260506023053 34 310 3.5 8.7 0.00 0.00 0.00 51 986.4
20260506022546 34 346 4.3 7.8 0.00 0.00 0.00 51 986.3
20260506022045 34 325 3.5 8.7 0.00 0.00 0.00 50 986.3
20260506021544 34 333 5.2 10.4 0.00 0.00 0.00 50 986.3
20260506021046 34 326 7.0 10.4 0.00 0.00 0.00 49 986.1
20260506020544 35 306 5.2 9.6 0.00 0.00 0.00 49 986.2
20260506020113 35 298 3.5 9.6 0.00 0.00 0.00 49 986.1
20260506015546 35 338 5.2 9.6 0.00 0.00 0.00 48 986.1